When you browse on this site, cookies collect data to enhance your experience and personalize the content and advertising you see.
Visit our Privacy Policy to learn more. By continuing to use the site, you agree to this use of cookies and data.
  • In Romania
  • List of Countries
  • For 7 days
  • Water Temperature
  • Satellite Maps
  • Weather Map
  • Weather Widgets
  • user-avatar
    Login

    Hourly Weather Modrzany

    Today, 19 May, Sunday

    Time Temperature Precipitation Wind Pressure Humidity
    00:00 +14°C° 0 mm 2 mps 738 mmHg 92%
    01:00 +13°C° 0 mm 1 mps 738 mmHg 92%
    02:00 +13°C° 0 mm 1 mps 738 mmHg 93%
    03:00 +13°C° 0 mm 1 mps 738 mmHg 93%
    04:00 +12°C° 0 mm 1 mps 738 mmHg 93%
    05:00 +14°C° 0 mm 1 mps 738 mmHg 89%
    06:00 +15°C° 0 mm 1 mps 738 mmHg 86%
    07:00 +18°C° 0 mm 1 mps 738 mmHg 82%
    08:00 +18°C° 0 mm 2 mps 738 mmHg 77%
    09:00 +20°C° 0 mm 2 mps 737 mmHg 72%
    10:00 +23°C° 0 mm 2 mps 737 mmHg 67%
    11:00 +24°C° 0.1 mm 3 mps 737 mmHg 65%
    12:00 +23°C° 0.1 mm 4 mps 737 mmHg 62%
    13:00 +25°C° 0.1 mm 4 mps 737 mmHg 60%
    14:00 +25°C° 0.4 mm 5 mps 737 mmHg 62%
    15:00 +25°C° 0.4 mm 5 mps 736 mmHg 65%
    16:00 +25°C° 0.4 mm 5 mps 736 mmHg 67%
    17:00 +22°C° 0.1 mm 5 mps 736 mmHg 72%
    18:00 +20°C° 0.1 mm 4 mps 736 mmHg 76%
    19:00 +19°C° 0.1 mm 4 mps 736 mmHg 81%
    20:00 +18°C° 0 mm 4 mps 736 mmHg 83%
    21:00 +17°C° 0 mm 3 mps 736 mmHg 86%
    22:00 +14°C° 0 mm 3 mps 736 mmHg 88%
    23:00 +14°C° 0 mm 3 mps 736 mmHg 89%

    Tomorrow, 20 May, Monday

    Time Temperature Precipitation Wind Pressure Humidity
    00:00 +15°C° 0 mm 2 mps 736 mmHg 90%
    01:00 +14°C° 0 mm 2 mps 735 mmHg 91%
    02:00 +14°C° 0 mm 2 mps 735 mmHg 91%
    03:00 +14°C° 0 mm 2 mps 735 mmHg 91%
    04:00 +14°C° 0 mm 2 mps 735 mmHg 92%
    05:00 +14°C° 0 mm 3 mps 735 mmHg 88%
    06:00 +17°C° 0 mm 4 mps 735 mmHg 84%
    07:00 +19°C° 0 mm 4 mps 735 mmHg 81%
    08:00 +20°C° 0 mm 5 mps 735 mmHg 76%
    09:00 +22°C° 0 mm 5 mps 735 mmHg 71%
    10:00 +23°C° 0 mm 5 mps 735 mmHg 66%
    11:00 +25°C° 0.1 mm 5 mps 736 mmHg 62%
    12:00 +25°C° 0.1 mm 5 mps 736 mmHg 59%
    13:00 +26°C° 0.1 mm 5 mps 736 mmHg 56%
    14:00 +26°C° 0 mm 5 mps 736 mmHg 58%
    15:00 +25°C° 0 mm 5 mps 736 mmHg 60%
    16:00 +25°C° 0 mm 4 mps 736 mmHg 62%
    17:00 +22°C° 0 mm 4 mps 736 mmHg 66%
    18:00 +20°C° 0 mm 4 mps 736 mmHg 71%
    19:00 +19°C° 0 mm 3 mps 736 mmHg 75%
    20:00 +18°C° 0 mm 3 mps 736 mmHg 76%
    21:00 +17°C° 0 mm 3 mps 736 mmHg 76%
    22:00 +16°C° 0 mm 2 mps 736 mmHg 76%
    23:00 +15°C° 0 mm 2 mps 736 mmHg 78%

    Day after tomorrow, 21 May, Tuesday

    Time Temperature Precipitation Wind Pressure Humidity
    00:00 +15°C° 0 mm 2 mps 736 mmHg 80%
    01:00 +14°C° 0 mm 2 mps 736 mmHg 82%
    02:00 +14°C° 0 mm 1 mps 736 mmHg 81%
    03:00 +14°C° 0 mm 1 mps 736 mmHg 81%
    04:00 +13°C° 0 mm 1 mps 736 mmHg 80%
    05:00 +15°C° 0 mm 1 mps 736 mmHg 78%
    06:00 +16°C° 0 mm 1 mps 736 mmHg 76%
    07:00 +16°C° 0 mm 0 mps 736 mmHg 74%
    08:00 +18°C° 0.4 mm 1 mps 737 mmHg 75%
    09:00 +18°C° 0.4 mm 1 mps 737 mmHg 76%
    10:00 +18°C° 0.4 mm 2 mps 737 mmHg 77%
    11:00 +18°C° 0.4 mm 2 mps 737 mmHg 76%
    12:00 +18°C° 0.4 mm 2 mps 737 mmHg 76%
    13:00 +18°C° 0.4 mm 2 mps 737 mmHg 75%
    14:00 +18°C° 0.1 mm 2 mps 737 mmHg 73%
    15:00 +19°C° 0.1 mm 2 mps 737 mmHg 70%
    16:00 +19°C° 0.1 mm 2 mps 737 mmHg 68%
    17:00 +18°C° 0.6 mm 2 mps 737 mmHg 72%
    18:00 +18°C° 0.6 mm 1 mps 737 mmHg 76%
    19:00 +16°C° 0.6 mm 1 mps 738 mmHg 79%
    20:00 +16°C° 0 mm 1 mps 738 mmHg 81%
    21:00 +15°C° 0 mm 1 mps 738 mmHg 83%
    22:00 +14°C° 0 mm 1 mps 738 mmHg 84%
    23:00 +14°C° 0 mm 1 mps 738 mmHg 86%

    22 May, Wednesday

    Time Temperature Precipitation Wind Pressure Humidity
    00:00 +14°C° 0 mm 1 mps 738 mmHg 87%
    01:00 +13°C° 0 mm 1 mps 738 mmHg 89%
    02:00 +13°C° 0 mm 1 mps 738 mmHg 90%
    03:00 +13°C° 0 mm 1 mps 738 mmHg 90%
    04:00 +13°C° 0 mm 1 mps 738 mmHg 91%
    05:00 +14°C° 0 mm 1 mps 738 mmHg 88%
    06:00 +15°C° 0 mm 1 mps 738 mmHg 85%
    07:00 +16°C° 0 mm 1 mps 739 mmHg 82%
    08:00 +17°C° 0.4 mm 2 mps 739 mmHg 78%
    09:00 +18°C° 0.4 mm 2 mps 739 mmHg 75%
    10:00 +19°C° 0.4 mm 2 mps 739 mmHg 71%
    11:00 +19°C° 1.1 mm 3 mps 739 mmHg 71%
    12:00 +20°C° 1.1 mm 3 mps 739 mmHg 72%
    13:00 +20°C° 1.1 mm 3 mps 738 mmHg 73%
    14:00 +20°C° 0.6 mm 4 mps 738 mmHg 74%
    15:00 +20°C° 0.6 mm 4 mps 738 mmHg 76%
    16:00 +19°C° 0.6 mm 4 mps 738 mmHg 77%
    17:00 +18°C° 0.6 mm 4 mps 738 mmHg 81%
    18:00 +17°C° 0.6 mm 3 mps 738 mmHg 86%
    19:00 +16°C° 0.6 mm 3 mps 739 mmHg 91%
    20:00 +14°C° 0.1 mm 3 mps 739 mmHg 92%
    21:00 +14°C° 0.1 mm 3 mps 739 mmHg 93%
    22:00 +13°C° 0.1 mm 4 mps 739 mmHg 95%
    23:00 +13°C° 0 mm 4 mps 739 mmHg 95%

    23 May, Thursday

    Time Temperature Precipitation Wind Pressure Humidity
    00:00 +12°C° 0 mm 4 mps 740 mmHg 94%
    01:00 +12°C° 0 mm 4 mps 740 mmHg 94%
    02:00 +12°C° 0 mm 3 mps 739 mmHg 94%
    03:00 +11°C° 0 mm 3 mps 739 mmHg 95%
    04:00 +12°C° 0 mm 2 mps 739 mmHg 96%
    05:00 +12°C° 0 mm 3 mps 739 mmHg 93%
    06:00 +13°C° 0 mm 3 mps 740 mmHg 91%
    07:00 +14°C° 0 mm 3 mps 740 mmHg 88%
    08:00 +14°C° 0.1 mm 3 mps 740 mmHg 88%
    09:00 +16°C° 0.1 mm 3 mps 740 mmHg 88%
    10:00 +16°C° 0.1 mm 3 mps 741 mmHg 88%
    11:00 +15°C° 0.5 mm 4 mps 741 mmHg 87%
    12:00 +16°C° 0.5 mm 5 mps 741 mmHg 86%
    13:00 +16°C° 0.5 mm 6 mps 741 mmHg 85%
    14:00 +15°C° 0.4 mm 6 mps 741 mmHg 87%
    15:00 +14°C° 0.4 mm 7 mps 741 mmHg 89%
    16:00 +11°C° 0.4 mm 7 mps 741 mmHg 91%
    17:00 +11°C° 0.3 mm 6 mps 741 mmHg 92%
    18:00 +11°C° 0.3 mm 6 mps 741 mmHg 93%
    19:00 +10°C° 0.3 mm 5 mps 742 mmHg 94%
    20:00 +10°C° 0.4 mm 5 mps 742 mmHg 93%
    21:00 +10°C° 0.4 mm 5 mps 742 mmHg 93%
    22:00 +11°C° 0.4 mm 4 mps 743 mmHg 93%
    23:00 +11°C° 0.2 mm 4 mps 743 mmHg 93%

    24 May, Friday

    Time Temperature Precipitation Wind Pressure Humidity
    00:00 +11°C° 0.2 mm 4 mps 743 mmHg 93%
    01:00 +10°C° 0.2 mm 3 mps 743 mmHg 93%
    02:00 +10°C° 0 mm 3 mps 743 mmHg 93%
    03:00 +10°C° 0 mm 3 mps 743 mmHg 93%
    04:00 +9°C° 0 mm 2 mps 743 mmHg 93%
    05:00 +10°C° 0 mm 2 mps 743 mmHg 89%
    06:00 +12°C° 0 mm 2 mps 743 mmHg 86%
    07:00 +13°C° 0 mm 2 mps 743 mmHg 83%
    08:00 +14°C° 0 mm 2 mps 742 mmHg 78%
    09:00 +15°C° 0 mm 2 mps 742 mmHg 72%
    10:00 +16°C° 0 mm 2 mps 741 mmHg 67%
    11:00 +17°C° 0 mm 2 mps 741 mmHg 65%
    12:00 +17°C° 0 mm 2 mps 740 mmHg 63%
    13:00 +18°C° 0 mm 2 mps 740 mmHg 60%
    14:00 +18°C° 0 mm 2 mps 739 mmHg 59%
    15:00 +19°C° 0 mm 2 mps 739 mmHg 58%
    16:00 +20°C° 0 mm 1 mps 738 mmHg 57%
    17:00 +19°C° 0 mm 1 mps 738 mmHg 62%
    18:00 +18°C° 0 mm 1 mps 738 mmHg 66%
    19:00 +15°C° 0 mm 1 mps 738 mmHg 71%
    20:00 +14°C° 0 mm 1 mps 737 mmHg 74%
    21:00 +13°C° 0 mm 1 mps 737 mmHg 78%
    22:00 +12°C° 0 mm 1 mps 737 mmHg 81%
    23:00 +12°C° 0 mm 1 mps 737 mmHg 83%
    Show more